Wind_Speed
37 32 26 25 24 22 23 22 21 19 18 18 17 16 15 16 17 20 20 22 21 18 17 23 27 28 26 25 27 32 26 28 29 31 32 36 33 33 33 35 33 29 30
40 37 27 26 26 25 26 25 24 24 22 22 20 18 17 18 19 20 22 22 23 22 18 21 25 33 27 26 26 30 31 27 29 32 37 36 36 34 31 32 32 32 34
39 37 32 29 29 29 28 28 29 30 29 27 26 22 21 19 21 23 23 24 26 26 23 20 24 31 28 31 27 28 34 35 32 31 36 37 37 38 35 36 35 31 29
38 36 36 35 33 32 32 33 33 32 32 31 30 28 27 24 22 25 27 27 27 30 28 25 25 33 29 28 32 30 31 37 37 35 32 38 37 39 38 38 34 34 34
41 39 39 39 38 38 38 38 38 38 36 34 33 32 30 29 28 27 28 29 30 29 32 28 28 30 36 33 32 32 33 34 38 40 37 34 39 40 38 39 35 37 38
43 43 42 43 43 41 42 42 43 43 42 41 39 39 36 34 31 32 31 32 33 34 34 35 31 32 33 37 37 35 36 36 38 39 41 40 36 43 43 44 42 41 41
45 45 45 46 47 48 48 47 48 48 48 47 46 44 42 40 38 37 37 36 36 38 38 38 39 36 35 37 38 40 36 40 38 39 42 42 43 42 44 46 46 43 42
43 46 48 49 48 51 51 50 51 51 51 50 50 49 46 45 44 42 41 41 42 40 41 43 42 43 40 40 40 40 39 38 43 45 42 45 47 46 45 45 43 42 40
47 50 52 54 55 56 55 55 54 53 54 53 53 53 51 50 49 49 48 47 46 46 45 45 47 48 47 44 44 44 42 41 41 43 45 45 45 48 49 48 47 44 44
50 53 56 58 59 60 60 59 60 60 58 57 57 56 56 56 56 56 55 52 52 53 50 51 50 49 49 51 48 48 47 46 44 44 44 47 49 48 48 47 49 48 49
47 48 52 52 55 57 58 60 60 61 61 61 60 60 60 61 61 58 58 57 56 55 57 56 56 56 54 54 53 53 52 50 49 48 46 46 46 46 47 50 50 50 49
52 55 57 58 58 58 59 60 61 62 63 64 65 67 68 67 67 65 63 63 63 63 61 63 64 62 61 61 60 58 58 56 54 53 51 50 49 48 47 45 44 48 49
55 59 61 63 64 65 64 65 65 65 65 67 69 68 69 71 71 67 63 62 63 65 64 64 67 68 68 64 65 66 64 63 60 58 56 56 54 51 50 50 47 47 47
45 49 53 56 59 62 65 66 68 69 69 68 67 63 63 61 61 63 62 60 59 60 60 61 67 72 72 72 71 70 70 69 68 65 62 60 59 56 53 53 51 49 49
46 49 50 50 52 55 58 61 62 64 65 67 69 69 69 66 64 64 63 61 59 59 59 60 63 66 72 77 76 76 76 74 74 73 69 67 64 61 57 58 54 53 53
46 47 48 49 53 52 54 58 60 62 63 64 64 65 65 67 68 71 70 67 66 63 62 61 59 61 63 69 73 77 77 80 77 76 76 73 71 67 66 61 60 59 58
45 46 47 50 52 54 54 56 57 57 61 63 65 63 64 64 64 67 69 72 75 72 71 67 64 61 60 64 65 70 74 76 81 80 78 78 77 75 72 70 69 63 64
54 56 56 55 55 57 55 58 57 58 59 59 62 62 63 63 64 65 68 69 70 73 78 75 72 68 64 64 66 67 70 73 73 80 80 80 79 79 78 76 74 73 70
56 59 60 61 62 60 61 63 62 62 60 62 60 60 64 62 62 66 69 69 69 71 71 75 79 75 72 68 67 67 66 70 76 75 79 83 83 82 80 80 77 76 75
66 67 63 63 64 65 66 67 68 66 65 62 63 64 64 63 65 62 62 65 71 72 74 75 77 80 79 76 72 71 70 68 68 74 82 83 83 83 82 83 82 80 78
64 67 70 71 68 69 71 71 71 70 69 69 67 66 69 68 68 71 68 68 69 72 75 77 79 80 83 83 80 78 76 74 72 70 74 80 86 89 84 83 83 82 81
67 67 66 67 70 71 72 73 71 70 71 72 74 72 71 71 75 75 76 76 76 73 74 77 79 80 83 88 86 84 81 80 78 77 75 76 78 83 90 91 86 83 83
70 72 74 76 77 78 77 76 76 77 75 75 74 75 76 76 73 78 83 83 83 80 79 78 78 80 84 87 92 90 89 87 85 84 82 79 80 81 83 89 95 93 90
76 81 82 83 80 81 81 81 79 79 81 79 80 82 81 81 82 82 79 87 89 90 89 85 83 82 82 86 91 92 96 94 93 89 88 87 86 85 84 84 87 92 98
88 83 83 84 83 84 84 84 86 86 85 86 85 87 90 90 90 90 90 86 92 95 96 96 94 90 90 88 88 92 95 98 99 97 96 94 92 91 89 88 86 87 88
95 94 82 83 84 85 87 89 91 91 90 90 92 94 95 96 98 98 97 96 96 98 102 101 102 99 95 94 93 93 91 93 97 104 103 102 99 95 94 92 92 91 90
Wind_Direction
221 222 225 229 236 242 245 244 250 257 263 264 270 270 265 252 248 246 249 250 253 252 237 227 224 221 228 223 224 218 203 216 214 215 214 213 212 212 219 220 221 219 222
225 232 231 235 240 244 247 249 253 259 265 267 269 268 265 261 255 247 250 253 255 255 248 232 225 226 230 230 227 222 213 210 220 217 213 218 220 218 221 220 224 226 226
231 233 236 237 241 246 250 253 254 261 266 264 265 267 267 266 255 250 246 245 253 254 251 244 229 218 231 230 234 224 222 217 217 216 219 219 225 226 227 223 222 222 228
234 236 241 243 248 249 251 254 256 257 261 264 265 264 262 264 265 254 249 245 246 249 253 249 237 225 219 225 230 236 230 225 219 222 222 224 226 227 225 223 223 228 232
238 240 243 246 248 251 254 256 259 261 261 260 262 263 262 260 262 263 257 250 248 245 247 249 248 236 230 224 225 228 232 231 228 226 225 228 227 226 227 223 224 230 233
240 243 245 248 250 253 255 257 259 262 262 260 258 260 260 259 260 260 261 257 250 248 246 242 247 244 240 235 230 226 228 231 231 230 229 228 228 225 226 231 232 230 233
244 246 249 252 255 257 257 259 260 262 263 263 262 260 259 257 256 256 256 255 253 249 248 247 243 244 245 243 240 235 230 226 228 234 232 232 234 230 227 229 231 234 240
251 250 250 251 252 255 258 259 259 260 261 262 261 261 258 256 255 254 254 254 253 253 249 247 245 244 242 243 243 242 241 235 229 228 232 233 233 233 233 234 237 239 243
248 249 250 251 251 251 251 253 254 255 257 259 262 262 261 259 259 257 257 253 251 250 249 248 247 243 243 242 243 243 242 242 239 235 232 231 233 235 237 238 240 240 242
256 255 254 252 252 253 253 254 254 254 255 256 259 258 258 262 263 262 260 254 250 248 248 248 245 243 242 242 241 240 242 242 241 243 239 237 237 236 233 234 236 238 238
256 258 260 259 258 259 260 260 260 261 261 260 259 258 259 262 264 263 259 256 250 249 249 245 244 243 240 240 242 241 239 242 244 242 242 245 243 243 243 239 240 240 240
262 263 263 264 265 264 263 262 261 260 260 260 263 263 262 262 263 265 262 258 254 251 249 249 247 241 241 240 240 241 241 241 242 244 245 242 244 246 245 245 245 246 247
263 264 263 263 263 263 263 262 262 262 262 263 264 264 264 265 264 262 258 257 257 255 251 247 245 245 244 242 239 240 241 241 243 244 245 246 245 242 245 246 245 246 245
262 263 262 262 262 261 261 262 262 262 262 261 260 260 262 262 263 259 253 251 251 251 249 247 244 242 243 242 243 240 240 243 242 242 244 245 245 245 242 243 242 242 247
266 267 268 269 265 263 263 262 262 261 261 261 259 258 257 257 258 260 256 251 248 248 248 246 244 244 242 242 242 243 241 241 244 242 242 243 243 243 243 242 241 242 244
272 272 271 269 266 262 262 260 260 262 262 260 259 260 257 256 253 252 254 255 254 250 249 249 246 245 244 243 240 240 242 241 242 243 243 242 244 244 243 242 243 242 242
281 281 277 275 276 274 270 266 262 259 257 258 259 257 257 257 255 252 252 251 252 252 252 249 249 246 245 244 242 240 239 240 240 241 243 244 242 243 244 244 244 244 245
285 285 282 277 280 282 276 278 273 270 265 259 256 254 254 255 256 255 252 251 250 252 251 251 250 248 245 244 242 240 238 236 237 239 239 243 246 245 243 244 245 245 247
286 287 284 281 281 279 278 278 278 276 273 269 265 262 258 253 255 254 254 253 253 250 250 252 252 250 248 246 242 242 242 240 237 237 238 238 241 245 247 246 244 245 245
289 288 284 284 283 281 280 279 279 276 272 271 269 266 265 264 260 257 253 253 252 250 251 249 247 248 248 247 246 243 242 242 242 241 238 238 237 240 243 245 247 247 246
287 286 284 281 281 281 280 279 276 272 269 269 269 266 263 263 261 263 261 257 253 252 250 250 250 247 244 244 244 244 243 242 242 242 242 241 239 237 238 242 243 245 247
283 283 283 282 281 282 282 277 274 273 272 270 266 264 263 261 260 261 260 260 258 255 252 251 250 249 246 244 244 245 246 245 243 242 241 242 241 241 239 237 238 241 244
283 283 282 282 280 280 277 278 275 271 272 270 266 265 264 261 262 260 257 257 258 256 254 253 251 249 247 246 244 243 243 244 244 244 243 243 243 242 242 241 239 239 241
288 282 280 281 280 278 276 275 273 274 274 271 268 264 263 262 262 262 260 254 253 255 254 252 252 251 249 248 246 245 242 243 244 245 245 245 245 245 244 243 243 243 243
293 290 278 276 276 276 275 274 274 275 273 271 268 264 263 261 262 261 259 259 254 252 253 253 252 251 250 250 250 247 246 245 243 243 244 244 245 246 246 246 245 245 246
286 292 280 275 273 273 272 272 273 273 272 270 269 267 265 265 264 261 256 256 254 253 250 251 252 253 250 249 249 250 248 247 245 244 244 245 244 245 246 247 247 247 247
Height
10826 10828 10831 10834 10835 10837 10838 10840 10841 10841 10842 10842 10842 10842 10843 10844 10844 10844 10845 10845 10846 10847 10848 10849 10851 10853 10854 10856 10858 10860 10862 10864 10866 10868 10871 10873 10875 10876 10878 10880 10882 10883 10884
10822 10824 10827 10830 10832 10834 10835 10836 10836 10837 10838 10839 10839 10839 10839 10840 10841 10841 10842 10842 10843 10844 10846 10846 10848 10850 10852 10854 10855 10857 10860 10862 10862 10865 10867 10870 10872 10874 10876 10877 10879 10880 10881
10819 10820 10822 10826 10828 10828 10829 10830 10832 10833 10834 10834 10835 10836 10835 10836 10837 10838 10838 10839 10839 10841 10842 10843 10845 10847 10849 10850 10852 10853 10856 10858 10859 10861 10863 10866 10868 10870 10872 10873 10875 10877 10877
10814 10815 10818 10821 10823 10825 10825 10824 10825 10826 10827 10828 10829 10830 10831 10831 10832 10833 10834 10834 10835 10836 10838 10839 10841 10843 10844 10845 10847 10849 10851 10853 10855 10856 10858 10861 10863 10865 10868 10870 10872 10873 10873
10808 10810 10813 10815 10817 10818 10818 10819 10819 10820 10820 10823 10823 10824 10825 10826 10827 10828 10829 10830 10830 10831 10833 10834 10836 10839 10839 10841 10842 10844 10846 10847 10849 10851 10853 10856 10858 10861 10863 10864 10866 10867 10868
10804 10806 10807 10809 10809 10811 10811 10812 10812 10811 10813 10814 10816 10817 10819 10821 10821 10822 10822 10824 10824 10826 10827 10829 10830 10833 10834 10834 10836 10838 10840 10842 10844 10845 10848 10850 10852 10854 10856 10858 10859 10861 10862
10797 10798 10800 10801 10802 10802 10802 10803 10804 10803 10804 10805 10807 10809 10811 10813 10814 10814 10815 10817 10817 10819 10820 10821 10824 10826 10828 10828 10830 10831 10834 10836 10838 10839 10842 10844 10846 10848 10850 10851 10853 10855 10856
10786 10786 10787 10789 10791 10791 10791 10792 10793 10794 10795 10796 10797 10799 10801 10803 10805 10807 10807 10809 10809 10811 10812 10813 10815 10818 10820 10821 10823 10824 10825 10828 10830 10832 10835 10837 10839 10841 10843 10845 10847 10849 10850
10770 10772 10773 10774 10775 10775 10776 10777 10779 10781 10783 10785 10786 10788 10790 10793 10795 10797 10799 10800 10801 10802 10803 10805 10806 10809 10811 10813 10814 10817 10818 10820 10822 10824 10827 10830 10832 10834 10837 10838 10840 10842 10844
10765 10765 10765 10765 10766 10767 10767 10768 10768 10769 10771 10772 10774 10776 10778 10780 10782 10786 10788 10790 10791 10793 10793 10794 10796 10799 10801 10803 10805 10807 10810 10811 10814 10816 10818 10821 10823 10826 10828 10831 10832 10833 10835
10754 10753 10754 10754 10755 10756 10757 10758 10759 10759 10760 10761 10762 10763 10765 10768 10770 10772 10775 10777 10779 10781 10782 10783 10785 10788 10790 10793 10795 10797 10800 10802 10804 10807 10810 10812 10814 10817 10819 10821 10824 10825 10826
10743 10742 10743 10743 10744 10743 10744 10745 10746 10747 10748 10748 10749 10750 10751 10753 10755 10757 10760 10763 10765 10767 10770 10772 10773 10775 10778 10781 10784 10786 10788 10791 10794 10797 10800 10803 10805 10808 10810 10812 10815 10815 10818
10733 10732 10731 10730 10730 10729 10730 10730 10730 10731 10733 10734 10735 10736 10737 10738 10739 10741 10743 10747 10749 10751 10755 10758 10759 10762 10766 10769 10772 10775 10777 10780 10782 10787 10789 10792 10795 10799 10801 10803 10806 10807 10808
10721 10719 10718 10717 10716 10715 10715 10715 10715 10716 10717 10718 10719 10721 10722 10723 10725 10726 10728 10729 10732 10734 10739 10742 10744 10747 10749 10754 10757 10760 10764 10766 10770 10774 10777 10780 10784 10788 10790 10792 10795 10797 10799
10709 10707 10706 10704 10704 10701 10700 10700 10700 10700 10700 10701 10702 10705 10707 10709 10712 10713 10715 10716 10717 10719 10723 10726 10729 10732 10734 10738 10742 10745 10749 10753 10755 10760 10764 10767 10771 10776 10779 10781 10783 10786 10789
10697 10694 10692 10689 10687 10687 10685 10685 10685 10684 10684 10685 10685 10686 10688 10691 10693 10695 10699 10702 10705 10705 10705 10709 10713 10717 10719 10722 10725 10729 10733 10739 10742 10745 10750 10754 10758 10762 10766 10769 10771 10774 10777
10684 10682 10680 10677 10675 10673 10671 10670 10669 10668 10669 10669 10669 10670 10670 10672 10675 10676 10679 10683 10686 10688 10690 10691 10695 10701 10705 10706 10708 10713 10718 10722 10727 10731 10735 10738 10742 10746 10751 10755 10759 10762 10764
10673 10670 10668 10666 10663 10660 10656 10654 10653 10652 10652 10651 10652 10653 10654 10655 10657 10658 10660 10663 10667 10670 10673 10675 10678 10683 10686 10688 10692 10696 10701 10706 10710 10715 10720 10724 10726 10730 10735 10739 10745 10749 10753
10660 10657 10654 10651 10649 10646 10644 10641 10639 10637 10635 10635 10635 10636 10636 10637 10638 10640 10641 10644 10648 10651 10655 10658 10662 10666 10669 10672 10674 10679 10684 10689 10694 10699 10703 10707 10711 10715 10719 10724 10729 10733 10738
10644 10640 10637 10634 10632 10629 10627 10626 10624 10622 10621 10619 10618 10619 10619 10619 10619 10620 10622 10624 10628 10631 10636 10639 10643 10648 10650 10654 10658 10662 10666 10671 10676 10682 10687 10691 10696 10700 10703 10708 10712 10718 10723
10627 10622 10619 10616 10613 10611 10608 10606 10605 10604 10603 10602 10601 10601 10601 10601 10602 10602 10603 10605 10609 10612 10616 10620 10623 10628 10631 10636 10641 10643 10649 10654 10659 10662 10665 10671 10678 10682 10689 10693 10697 10701 10706
10609 10605 10601 10597 10593 10589 10586 10584 10582 10582 10582 10582 10583 10582 10582 10582 10583 10583 10584 10586 10588 10592 10595 10598 10603 10608 10612 10616 10623 10628 10634 10637 10641 10643 10647 10651 10657 10664 10671 10675 10680 10684 10689
10588 10583 10579 10576 10573 10569 10565 10562 10559 10558 10558 10559 10560 10560 10561 10561 10562 10563 10565 10565 10567 10571 10575 10577 10581 10586 10591 10594 10601 10608 10613 10617 10621 10624 10631 10636 10637 10643 10648 10654 10661 10666 10672
10567 10561 10556 10552 10548 10544 10541 10538 10535 10534 10533 10533 10533 10535 10536 10538 10539 10540 10542 10544 10545 10546 10550 10555 10559 10565 10568 10573 10578 10584 10591 10595 10601 10607 10612 10616 10619 10624 10627 10634 10640 10647 10653
10541 10535 10529 10525 10521 10518 10515 10512 10509 10507 10507 10505 10506 10507 10507 10510 10512 10514 10517 10519 10521 10522 10526 10530 10534 10540 10546 10551 10553 10560 10567 10574 10579 10585 10588 10593 10598 10604 10610 10615 10621 10626 10630
10514 10509 10501 10496 10492 10489 10486 10483 10481 10479 10478 10477 10475 10476 10477 10478 10479 10482 10486 10491 10493 10495 10499 10504 10508 10513 10519 10526 10531 10536 10543 10550 10555 10560 10567 10570 10577 10584 10589 10595 10601 10605 10610